Location: Newark
(41.8083°N, 72.2500°W)
Time: 21:20:47
(UTC+00:00)

Courier 1B - Pass Details

Date: 03 December 2021
Orbit: 962 x 1209 km, 28.3° (Epoch: 19 January)

Event Time Altitude Azimuth Distance (km) Brightness Sun altitude
Rises 00:28:47 0° 251° (WSW) 3,904 11.6 -34.7°
Reaches altitude 10° 00:32:06 10° 239° (WSW) 2,902 10.6 -35.4°
Enters shadow 00:36:40 24° 200° (SSW) 1,991 9.2 -36.2°
Maximum altitude 00:37:39 25° 187° (S) 1,946 - -36.4°
Drops below altitude 10° 00:42:57 10° 135° (SE) 2,766 - -37.4°
Sets 00:46:02 0° 122° (ESE) 3,684 - -38.0°
